Location: Hiram
(41.3130°N, 81.1440°W)
Time: 00:51:39
(UTC-04:00)

Daily predictions for brighter satellites

Satellite Brightness Start Highest point End
(mag) Time Altitude Azimuth Time Altitude Azimuth Time Altitude Azimuth
Okean 1 4.5 00:01:03 10° N 00:03:54 36° NE 00:03:54 36° NE
Sich 1 Rocket 4.0 00:05:59 55° W 00:06:08 55° W 00:10:29 10° N
Cosmos 494 Rocket 4.2 00:03:20 10° NNW 00:08:27 56° WSW 00:08:45 55° WSW
Meteor 1-18 Rocket 4.1 00:02:46 10° N 00:08:31 82° E 00:09:08 71° SSE
Cosmos 1782 Rocket 3.7 00:09:07 69° N 00:09:07 69° N 00:13:02 10° N
Lacrosse 5 rocket 4.1 00:11:01 10° WNW 00:13:24 16° NNW 00:15:49 10° NNE
Spot 4 4.1 00:14:19 60° WSW 00:14:20 60° W 00:19:08 10° NNW
CZ-4 R/B 4.2 00:10:15 10° N 00:14:48 55° WNW 00:15:13 53° W
Cosmos 1943 Rocket 4.4 00:10:48 10° WSW 00:15:04 22° NW 00:19:21 10° N
Cosmos 405 Rocket 4.0 00:15:27 10° NNW 00:17:52 38° NNW 00:17:52 38° NNW
Cosmos 1633 4.5 00:25:24 27° NNE 00:25:24 27° NNE 00:27:08 10° NNE
CZ-4B R/B 3.7 00:21:43 10° N 00:26:37 58° WNW 00:27:00 56° W
Cosmos 2026 Rocket 4.3 00:25:32 47° SW 00:27:03 60° W 00:33:15 10° N
ALOS 2 3.6 00:28:20 40° NE 00:28:20 40° NE 00:31:47 10° N
Cosmos 1975 Rocket 3.8 00:26:54 10° NNW 00:30:38 50° WNW 00:30:38 50° WNW
Cosmos 2151 Rocket 4.4 00:40:41 46° NNE 00:40:41 46° NNE 00:43:56 10° NNE
S3M 3.9 00:39:42 10° N 00:45:49 74° W 00:46:18 70° SW
Cosmos 1697 Rocket 4.1 00:49:13 26° E 00:49:13 26° E 00:52:41 10° NE
Cosmos 2297 Rocket 2.5 00:42:21 10° NNW 00:47:56 54° ENE 00:48:16 53° ENE
Cosmos 1536 Rocket 4.4 00:50:29 10° N 00:53:43 48° N 00:53:43 48° N
H-2A R/B 4.5 00:57:24 13° W 00:57:24 13° W 00:58:41 10° WNW
ATLAS 5 CENTAUR R/B 4.4 00:55:59 10° WNW 00:59:24 16° WSW 00:59:24 16° WSW
GP-B 4.2 00:55:26 10° NNE 00:58:32 39° NE 00:58:32 39° NE
Cosmos 1553 Rocket 4.5 00:59:14 10° NNW 01:05:19 48° W 01:05:58 47° WSW
ATLAS CENTAUR R/B 3.1 01:05:54 28° NW 01:05:54 28° NW 01:08:52 10° NNE
Cosmos 1371 Rocket 4.2 01:07:59 64° NE 01:07:59 64° NE 01:12:27 10° NNE
Cosmos 2082 3.6 01:05:04 10° NNW 01:10:39 83° NNE 01:10:39 83° NNE
Cosmos 2278 3.7 01:12:16 82° NNE 01:12:16 82° NNE 01:17:42 10° NNE
ISS -0.5 01:12:06 10° NW 01:13:51 14° N 01:15:37 10° NNE
Meteor 1-13 Rocket 4.3 01:08:44 10° NNW 01:14:20 67° W 01:14:20 67° W
Meteor 1-19 Rocket 4.4 01:09:14 10° NNW 01:14:56 67° W 01:14:56 67° W
Cosmos 1190 Rocket 4.4 01:10:36 10° NNW 01:15:26 58° NE 01:15:26 58° NE
CZ-2C R/B 4.1 01:25:43 35° WNW 01:25:43 35° WNW 01:29:35 10° NNW
Mayak -0.1 01:23:58 10° N 01:26:48 41° N 01:26:48 41° N
Cosmos 1536 4.4 01:30:56 35° NNW 01:30:56 35° NNW 01:33:27 10° N
Cosmos 1624 Rocket 4.2 01:32:23 70° NNW 01:32:23 70° NNW 01:37:17 10° NNE
Meteor 1-11 Rocket 4.2 01:36:32 51° W 01:36:54 52° WNW 01:42:44 10° N
Cosmos 2227 Rocket 2.8 01:31:31 10° NW 01:36:06 45° W 01:36:06 45° W
Cosmos 2266 Rocket 4.5 01:37:32 46° W 01:38:09 48° WNW 01:44:06 10° N
USA 229 DEB 3.5 01:38:23 76° S 01:38:52 81° ESE 01:45:50 10° NE
USA 229 3.5 01:38:31 76° S 01:38:58 80° ESE 01:45:55 10° NE
Cosmos 407 Rocket 3.7 01:34:06 10° NNW 01:38:54 72° N 01:38:54 72° N
Okean 1 Rocket 4.1 01:41:29 43° NNW 01:41:29 43° NNW 01:44:32 10° N
CZ-2C R/B 3.8 01:37:04 10° N 01:41:32 30° WNW 01:42:04 30° WNW
Cosmos 2315 Rocket 3.9 01:36:00 10° NNW 01:42:09 69° W 01:42:16 69° WSW
Meteor 1-23 Rocket 4.3 01:38:34 10° NNW 01:43:52 70° WNW 01:43:52 70° WNW
Cosmos 1140 Rocket 4.2 01:40:33 10° N 01:45:30 44° ENE 01:45:42 44° ENE
Cosmos 1656 4.0 01:53:47 54° WNW 01:53:54 54° WNW 01:59:19 10° NNE
Meteor 2-4 Rocket 4.5 01:51:02 10° NNW 01:55:18 38° WNW 01:55:18 38° WNW
CZ-4B R/B 3.8 02:04:25 24° NNW 02:04:25 24° NNW 02:05:54 10° NNW
Cosmos 2056 Rocket 4.2 02:02:35 43° WNW 02:02:35 43° WNW 02:07:21 10° N
CZ-4C R/B 3.2 01:55:43 10° NNW 02:02:50 65° NE 02:06:47 31° ESE
Cosmos 1980 Rocket 2.2 02:03:42 71° E 02:03:42 71° E 02:09:00 10° NNE
Cosmos 1954 Rocket 4.1 02:02:25 10° NNW 02:07:16 75° N 02:07:16 75° N
Cosmos 1238 Rocket 3.6 02:04:17 10° N 02:09:20 85° NW 02:09:20 85° NW
PSLV R/B 4.4 02:07:17 10° NNE 02:11:18 52° ENE 02:11:18 52° ENE
Cosmos 1975 4.0 02:23:32 43° N 02:23:32 43° N 02:26:21 10° N
Cosmos 1452 Rocket 3.7 02:28:49 62° WNW 02:28:49 62° WNW 02:33:59 10° NNE
NOSS 3-1 (C) 3.2 02:29:04 79° S 02:29:23 82° ESE 02:35:50 10° NE
H-2A R/B 3.4 02:25:44 10° N 02:28:35 44° N 02:28:35 44° N
Cosmos 2297 Rocket 3.9 02:27:23 10° NW 02:30:03 19° W 02:30:03 19° W
Cosmos 1697 Rocket 3.5 02:30:56 38° WNW 02:31:41 40° WNW 02:36:58 10° N
USA 81 4.2 02:26:31 10° N 02:31:47 66° E 02:32:01 65° E
Cosmos 1850 Rocket 4.0 02:35:00 10° NNW 02:40:22 77° ENE 02:40:43 73° ESE
Nadezhda 1 Rocket 3.8 02:34:51 10° NNW 02:40:56 73° W 02:41:30 68° SW
Cosmos 1709 Rocket 4.1 02:42:48 54° SE 02:43:55 64° E 02:49:57 10° NNE
SL-16 R/B 2.4 02:44:16 54° SE 02:44:40 55° ESE 02:50:12 10° NNE
Helios 1A Rocket 3.6 02:43:53 10° NNE 02:47:07 49° NE 02:47:07 49° NE
BREEZE M DEB (TANK) 3.5 02:48:29 60° W 02:49:24 78° NNW 02:52:33 10° NE
ISS -1.0 02:48:52 10° NNW 02:51:17 19° NNE 02:53:42 10° ENE
Cosmos 614 Rocket 4.4 02:48:41 10° NNW 02:52:46 47° WNW 02:52:46 47° WNW
Cosmos 2322 Rocket 2.2 02:53:12 62° SE 02:53:47 67° ESE 02:59:27 10° NNE
Meteor 1-12 Rocket 4.5 02:56:32 52° W 02:57:06 54° WNW 03:02:45 10° N
Cosmos 1420 Rocket 4.4 02:58:32 48° WNW 02:58:49 49° WNW 03:03:52 10° N
SL-16 R/B 3.6 02:55:29 16° SE 03:00:03 43° ENE 03:05:54 10° N
Cosmos 1626 Rocket 3.7 02:57:47 10° N 03:01:42 69° NNW 03:01:42 69° NNW
USA 234 3.2 02:59:35 10° NE 03:06:09 81° NW 03:08:23 45° WSW
Cosmos 1666 3.5 03:07:17 48° NNW 03:07:17 48° NNW 03:10:13 10° N
Resurs 1-4 Rocket 3.0 03:13:39 10° NNE 03:18:39 42° E 03:20:23 32° SE
IRS-1C 4.3 03:13:37 10° NNE 03:18:55 63° ESE 03:20:14 48° SSE
Cosmos 2181 Rocket 4.0 03:13:30 10° N 03:19:56 84° W 03:22:06 45° S
Cosmos 1461 3.9 03:16:20 10° NW 03:19:15 38° WNW 03:19:15 38° WNW
Cosmos 1825 Rocket 4.3 03:17:59 10° N 03:22:16 48° ENE 03:23:30 37° SE
Cosmos 1741 Rocket 4.4 03:17:50 10° NNW 03:22:27 44° W 03:22:27 44° W
ARIANE 5 R/B 3.5 03:19:54 10° NNE 03:24:44 40° E 03:26:38 29° SE
BREEZE-M DEB (TANK) 4.1 03:20:30 10° W 03:27:08 33° NNW 03:29:54 10° NE
ADEOS Rocket 2.9 03:23:27 10° NNE 03:29:47 84° WNW 03:31:34 48° SSW
ATLAS 2AS CENTAUR R/B 3.8 03:26:52 25° SSE 03:30:35 40° ESE 03:37:57 10° NE
BREEZE M DEB (TANK) 3.6 03:32:31 34° NE 03:32:31 34° NE 03:35:08 10° E
SL-08 ROCKET BODY 4.4 03:31:22 44° S 03:33:29 89° E 03:39:35 10° N
NPP 3.7 03:29:38 10° N 03:35:00 68° WNW 03:36:18 50° SW
NOSS 3-1 (A) 3.9 03:33:28 34° W 03:35:40 50° NW 03:42:03 10° NNE
Cosmos 1842 3.8 03:32:19 10° NNW 03:35:25 46° WNW 03:35:25 46° WNW
Cosmos 1331 Rocket 3.9 03:36:02 56° SSW 03:37:09 85° WNW 03:42:20 10° NNE
SL-08 R/B 3.2 03:37:31 59° WSW 03:37:48 61° W 03:42:23 10° NNW
CZ-2D R/B 2.4 03:33:10 10° NNE 03:38:38 64° ESE 03:40:47 36° S
Cosmos 2228 4.5 03:36:56 22° SE 03:38:42 31° E 03:42:29 10° NNE
COBE Rocket 4.1 03:34:19 10° N 03:39:26 63° WNW 03:40:35 49° SW
Cosmos 2263 Rocket 2.1 03:34:20 10° NNW 03:40:02 76° WSW 03:42:29 35° S
Cosmos 220 Rocket 3.7 03:37:44 10° NNW 03:41:56 72° WSW 03:42:06 71° SW
NOSS 2-3 (E) 4.3 03:41:49 41° SSE 03:42:58 51° ESE 03:48:08 10° NE
IRS-P3 4.4 03:38:47 10° N 03:43:59 53° WNW 03:45:21 42° WSW
Cosmos 2360 Rocket 2.3 03:44:09 40° S 03:46:10 71° ESE 03:51:49 10° NNE
Cosmos 1980 Rocket 4.1 03:45:28 14° W 03:47:59 18° NW 03:51:50 10° N
CBERS-1 4.3 03:43:13 10° N 03:48:14 54° WNW 03:49:32 42° WSW
COSMOS 2428 4.0 03:45:35 19° SSE 03:48:49 33° ESE 03:53:53 10° NE
Cosmos 44 3.2 03:44:48 10° NNW 03:49:10 70° ENE 03:53:39 10° SE
DELTA 2 R/B (1) 3.9 03:49:16 41° S 03:50:15 46° SSE 03:55:33 10° E
Cosmos 2219 Rocket 4.2 03:47:01 10° SE 03:51:00 20° E 03:55:00 10° NE
CZ-4C R/B 3.6 03:44:54 10° NW 03:51:11 31° WSW 03:51:52 30° WSW
Cosmos 2074 Rocket 3.9 03:49:38 35° S 03:52:33 86° W 03:58:53 10° N
OAO 3 Rocket 4.0 03:54:41 34° SSE 03:54:41 34° SSE 03:58:53 10° ESE
Cosmos 1486 Rocket 4.1 03:51:22 10° NNW 03:56:42 75° ENE 04:01:31 12° SSE
AQUA 4.3 03:52:59 10° N 03:57:33 46° WNW 03:58:41 39° WSW
Cosmos 2058 Rocket 3.5 03:56:09 33° SSE 03:58:02 61° E 04:02:30 10° NNE
Cosmos 1953 Rocket 3.5 03:55:25 10° N 03:59:54 90° NE 04:01:44 36° S
Cosmos 1844 Rocket 4.2 03:55:20 10° N 04:00:34 36° ENE 04:05:46 10° SE
Uosat 12 SS-18 rocket 4.3 04:02:03 42° SW 04:03:42 83° NW 04:09:23 10° NNE
CBERS 1 LM4 rocket 4.3 03:58:59 10° NNE 04:03:45 81° WNW 04:05:37 38° SSW
ATLAS 3B R/B 4.0 03:57:27 10° NNW 04:03:47 40° NE 04:09:53 10° ESE
Centaur D AC-29 3.3 04:03:55 17° SSE 04:04:19 17° SSE 04:09:31 10° ESE
MOZ.5/SAFIR/RUBIN 5/SL-8 4.2 04:01:10 14° SSE 04:05:08 61° ENE 04:09:43 10° N
MOS 1 Rocket 3.2 04:01:33 10° NNE 04:06:06 73° ESE 04:07:59 33° S
Cosmos 2333 Rocket 4.1 04:03:44 10° SSE 04:08:03 22° E 04:12:21 10° NE
Meteor 2-5 Rocket 4.0 04:02:56 10° N 04:08:35 67° E 04:14:18 10° SSE
Cosmos 2322 3.6 04:06:52 33° SSW 04:09:31 90° W 04:15:13 10° NNE
BREEZE M DEB (TANK) 4.1 04:07:50 11° NW 04:09:34 19° N 04:12:26 10° ENE
Cosmos 2154 Rocket 4.2 04:07:32 19° S 04:12:11 71° E 04:18:27 10° NNE
Okean O Rocket 4.3 04:11:45 10° ENE 04:13:58 13° E 04:16:10 10° ESE
NOSS 2-3 (C) 3.8 04:14:04 36° SW 04:16:06 84° NW 04:21:36 10° NE
SL-8 R/B 3.6 04:14:20 36° SW 04:16:17 82° SSE 04:21:09 10° ENE
Cosmos 1610 Rocket 4.4 04:12:36 25° S 04:16:21 83° W 04:22:30 10° N
Iridium 4 Rocket 3.8 04:18:26 26° SSW 04:21:49 66° W 04:27:28 10° N
Cosmos 1726 Rocket 3.8 04:21:10 35° SW 04:22:38 50° W 04:26:57 10° N
Cosmos 1707 2.6 04:19:22 10° NNW 04:23:13 74° W 04:25:01 30° S
UNK 4.3 04:22:03 32° SW 04:23:15 37° W 04:27:35 10° NNW
Cosmos 1766 4.3 04:22:41 14° SSE 04:25:41 42° E 04:29:25 10° NNE
ADEOS 3.7 04:22:18 10° N 04:27:27 60° WNW 04:30:18 26° SW
ISS -3.8 04:24:53 10° NW 04:28:09 82° NNE 04:31:25 10° ESE
SL-16 R/B 3.7 04:26:08 16° W 04:29:07 23° NW 04:33:38 10° N
Cosmos 44 Rocket 3.5 04:26:06 10° NW 04:30:33 42° WSW 04:34:03 16° S
Meteor 1-4 Rocket 3.7 04:30:12 25° W 04:30:40 26° WNW 04:33:43 10° NNW
Cosmos 2341 Rocket 4.3 04:25:24 12° S 04:31:21 72° E 04:37:42 10° NNE
Cosmos 1607 4.0 04:24:53 10° NNW 04:31:21 86° NE 04:37:50 10° SSE
Cosmos 1302 Rocket 4.5 04:30:38 26° SW 04:33:19 48° WNW 04:38:27 10° N
Cosmos 1378 3.0 04:29:50 10° NNW 04:33:33 68° W 04:35:39 24° S
IRS-1D 4.2 04:31:03 10° N 04:35:36 38° WNW 04:38:04 23° WSW
USA 161 2.9 04:33:06 10° SE 04:35:58 40° ENE 04:38:45 10° N
H-2A R/B 3.9 04:12:26 10° W 04:37:02 40° SW 04:42:17 10° SE
Cosmos 2322 Rocket 3.9 04:35:01 13° W 04:38:21 20° NW 04:42:33 10° N
Cosmos 2333 4.3 04:34:25 19° SSW 04:38:35 78° ESE 04:44:17 10° NNE
CZ-2D R/B 3.5 04:37:32 10° N 04:41:51 70° WNW 04:44:34 21° SSW
SL-16 R/B 3.3 04:40:35 21° SW 04:43:44 31° W 04:49:15 10° NW
Cosmos 1844 4.1 04:42:51 10° NNW 04:48:26 66° ENE 04:54:03 10° SSE
Cosmos 1503 Rocket 4.0 04:43:32 10° NNW 04:48:49 73° WSW 04:54:08 10° S
Cosmos 1340 Rocket 2.8 04:52:52 10° NNW 04:56:49 63° W 05:00:41 10° S
ADEOS II 2.6 04:52:56 10° NNE 04:58:09 59° E 05:03:19 10° S
Resurs 1-4 Rocket 3.4 04:53:59 10° NNW 04:58:14 25° WNW 05:01:28 14° WSW
Cosmos 1356 Rocket 4.2 04:54:25 10° N 04:58:22 51° ENE 05:02:14 10° SSE
Cosmos 1805 3.7 04:57:28 10° S 05:01:20 63° E 05:05:12 10° NNE
Meteor 1-22 Rocket 4.3 04:57:19 11° SSW 05:02:46 74° W 05:08:42 10° N
ARIANE 5 R/B 3.8 04:59:29 10° NNW 05:03:37 25° WNW 05:06:58 14° WSW
PSLV R/B 4.5 05:02:49 10° NNE 05:07:05 49° E 05:11:19 10° S
BREEZE-M DEB (TANK) 2.3 05:05:01 17° WSW 05:07:11 86° NNW 05:12:53 10° ENE
Cosmos 1992 Rocket 4.1 05:07:16 13° SSW 05:11:57 65° WNW 05:17:08 10° NNE
Cosmos 1271 Rocket 3.9 05:11:22 15° SW 05:14:02 29° WNW 05:17:33 10° NNW
UNKNOWN OBJECT B 4.2 05:11:54 10° NNW 05:14:58 23° WNW 05:17:32 13° WSW
Lacrosse 5 rocket 2.7 05:11:13 10° NNW 05:15:02 42° NE 05:19:05 10° ESE
Cosmos 1184 Rocket 4.3 05:13:29 10° NW 05:15:58 20° W 05:17:41 14° SW
CZ-2D R/B 3.8 05:14:28 10° NNW 05:18:08 19° WNW 05:21:48 10° WSW
Cosmos 1758 3.5 05:16:25 10° S 05:20:24 79° E 05:24:28 10° N
ATLAS 2AS CENTAUR R/B 3.5 05:14:19 12° WSW 05:21:26 53° NW 05:29:25 10° NNE
Cosmos 389 Rocket 3.5 05:21:17 12° SW 05:24:08 31° WNW 05:27:23 10° N
Cosmos 1809 Rocket 4.5 05:20:01 10° SSW 05:26:07 75° W 05:32:18 10° N
CZ-4B R/B 2.8 05:23:28 10° NNE 05:27:18 85° WNW 05:31:20 10° SSW
Cosmos 1953 2.4 05:23:59 10° S 05:28:01 83° E 05:32:03 10° N
Abrixas rocket 4.0 05:25:33 10° SSW 05:28:18 24° SE 05:31:03 10° E
NOSS 3-4 (A) 4.4 05:23:08 10° S 05:29:04 46° ESE 05:35:11 10° NE
NOSS 3-4 (C) 4.4 05:23:14 10° S 05:29:09 45° ESE 05:35:15 10° NE
In-Cosmos 22 4.3 05:24:56 10° NNW 05:30:06 51° W 05:35:10 10° SSW
Lacrosse 5 3.7 05:26:28 10° S 05:30:34 25° ESE 05:34:43 10° ENE
Cosmos 2360 Rocket 3.9 05:26:48 10° W 05:30:45 19° NW 05:34:43 10° N
COSMOS 2428 3.5 05:27:42 10° SW 05:32:59 37° WNW 05:38:18 10° N
Cosmos 2219 Rocket 2.4 05:28:52 10° SW 05:34:27 57° WNW 05:40:04 10° NNE
Cosmos 1980 3.8 05:29:46 10° SSW 05:35:27 89° ESE 05:41:11 10° NNE
PAYLOAD B 4.4 05:30:00 10° NNE 05:35:38 87° ESE 05:41:15 10° SSW
DELTA 2 R/B (1) 3.6 05:30:53 10° W 05:36:27 75° S 05:42:00 10° E
Cosmos 2237 Rocket 2.3 05:31:43 10° SSW 05:37:20 85° ESE 05:43:00 10° NNE
Aureole 2 Rocket 3.6 05:33:40 10° SW 05:37:32 36° WNW 05:41:19 10° N
OAO 3 Rocket 3.9 05:33:03 10° WSW 05:37:33 38° S 05:42:06 10° ESE
Meteor 2-14 Rocket 4.5 05:33:32 10° S 05:39:35 80° W 05:45:43 10° N
SEDSat Delta rocket 4.5 05:37:20 10° SW 05:40:27 21° S 05:43:43 10° SE
SL-8 Rocket 4.3 05:34:22 10° SSW 05:40:31 53° WNW 05:46:43 10° N
PSLV R/B 4.2 05:37:36 10° N 05:41:22 47° WNW 05:45:11 10° SSW
ATLAS CENTAUR R/B 2.6 05:37:53 10° NW 05:42:52 48° NE 05:45:13 10° ESE
CZ-4B R/B 3.4 05:37:11 10° NNE 05:42:53 88° ESE 05:48:29 10° SSW
Cosmos-2242 4.2 05:39:03 10° SSE 05:43:06 45° E 05:47:11 10° NNE
Cosmos 1844 Rocket 3.4 05:39:21 10° NW 05:44:21 33° WSW 05:49:20 10° SSW
